Wind_Speed
29 22 17 16 14 14 14 15 17 23 29 29 29 29 29 30 34 41 41 45 49 46
29 22 17 15 15 14 13 14 14 18 23 24 24 25 28 25 28 30 36 43 48 46
29 22 17 15 15 13 14 13 13 16 21 22 20 26 27 26 28 26 34 42 49 48
26 22 19 15 15 15 15 17 14 14 16 19 21 23 24 24 28 30 33 38 42 45
24 22 18 16 16 16 16 19 18 15 14 15 16 18 18 19 19 21 24 28 33 36
24 21 17 16 16 17 17 18 19 18 18 16 15 14 12 12 13 15 17 20 26 25
22 18 16 15 16 17 18 17 18 17 16 17 17 17 16 16 14 15 17 18 21 26
18 15 16 16 15 15 16 17 17 17 17 18 20 22 23 23 22 22 21 23 24 25
14 12 11 10 15 15 15 15 15 16 17 17 17 18 20 21 23 25 27 29 30 30
16 16 14 11 9 11 13 13 15 15 15 15 17 22 22 22 24 22 25 27 28 29
13 13 11 11 11 12 14 16 17 18 17 19 23 22 21 23 26 29 29 26 27 29
10 10 7 8 10 13 14 14 15 17 17 18 19 20 20 19 19 20 24 30 33 32
9 8 9 7 6 6 8 10 11 12 14 17 19 22 23 22 22 24 26 27 29 30
10 7 10 8 7 7 6 6 7 6 5 5 7 11 15 16 13 18 21 23 25 25
Wind_Direction
206 203 201 208 201 202 213 217 219 216 220 226 225 233 236 230 238 219 228 226 229 230
198 198 196 198 200 207 212 210 204 204 211 218 216 226 229 227 229 239 234 225 229 230
196 198 195 199 202 204 207 195 194 191 205 205 214 218 223 230 230 238 233 233 232 232
189 194 196 195 202 201 202 192 192 192 202 209 215 221 225 226 234 237 241 237 230 230
186 191 192 191 199 200 199 196 196 189 190 192 196 198 209 217 226 230 241 244 242 241
186 188 187 186 193 197 200 202 199 198 196 193 192 199 205 213 223 233 238 238 235 223
187 185 182 184 193 198 200 204 209 208 207 207 210 211 217 225 231 228 230 234 238 239
170 176 184 189 193 198 203 208 211 213 217 222 221 219 222 226 231 232 235 237 239 240
155 151 156 179 200 205 210 212 215 217 221 222 223 236 239 235 236 238 240 241 244 246
165 170 162 162 188 211 219 223 225 226 225 225 227 235 236 236 234 240 243 244 246 252
151 160 159 182 205 217 224 225 227 231 233 225 236 244 246 242 238 236 235 240 243 242
102 119 144 180 197 213 222 229 232 238 240 240 247 255 256 255 257 255 252 253 255 259
68 102 112 129 152 182 209 224 228 238 240 242 241 249 255 253 252 256 258 259 262 261
73 94 102 104 118 133 144 150 164 183 191 219 238 252 258 260 254 241 241 243 248 255
Height
1430 1436 1440 1442 1446 1448 1451 1453 1454 1457 1461 1464 1469 1474 1477 1480 1482 1489 1493 1497 1501 1507
1425 1431 1436 1439 1441 1443 1445 1448 1451 1453 1457 1461 1465 1470 1473 1477 1482 1485 1487 1491 1495 1500
1421 1427 1432 1435 1437 1439 1442 1445 1448 1451 1454 1457 1461 1465 1469 1473 1476 1479 1482 1486 1489 1490
1417 1424 1428 1431 1433 1436 1439 1443 1447 1449 1452 1455 1458 1461 1465 1468 1471 1474 1477 1478 1481 1485
1414 1420 1424 1427 1430 1434 1437 1440 1445 1448 1450 1453 1455 1458 1461 1465 1468 1471 1474 1476 1479 1483
1412 1417 1422 1424 1428 1431 1434 1438 1441 1445 1448 1451 1453 1456 1459 1461 1464 1466 1468 1471 1475 1480
1410 1415 1419 1422 1425 1429 1433 1436 1439 1443 1446 1448 1451 1455 1458 1460 1462 1464 1466 1469 1471 1474
1410 1412 1415 1419 1423 1427 1431 1434 1438 1441 1444 1446 1449 1452 1454 1456 1458 1460 1462 1465 1467 1469
1409 1411 1414 1417 1422 1426 1429 1433 1436 1438 1441 1444 1447 1448 1449 1452 1453 1455 1457 1458 1460 1462
1405 1409 1411 1414 1421 1425 1428 1431 1433 1436 1438 1441 1443 1442 1444 1446 1449 1451 1452 1453 1454 1456
1407 1407 1406 1412 1418 1421 1423 1427 1429 1430 1432 1433 1434 1436 1438 1440 1442 1443 1446 1448 1448 1449
1406 1404 1407 1411 1415 1418 1420 1422 1424 1425 1426 1428 1429 1431 1432 1434 1436 1438 1440 1438 1439 1441
1407 1405 1407 1411 1413 1415 1417 1419 1420 1421 1422 1423 1424 1425 1426 1428 1430 1432 1431 1431 1432 1432
1414 1416 1409 1414 1416 1416 1417 1419 1419 1419 1420 1421 1421 1420 1421 1422 1424 1424 1425 1425 1425 1426